Flag for Germany Weather past 2 weeks in Leimen, Baden-Württemberg, Germany

Now
79 °F

Sunny.


Feels Like: 81 °F
Forecast: 72 / 95 °F
Wind: 2 mph from North

Location: Baden Wurttemberg - Neuostheim

Current Time: Jul 2, 2015 at 8:16:13 AM

Latest Report: Jul 2, 2015 at 7:50 AM


Visibility: 10 mi

Pressure: 30.09 "Hg

Humidity: 61%

Dew point: 64 °F

Location of LeimenLocation

Historic Weather in Leimen — Graph

°F

Leimen temperature yesterday

Maximum temperature yesterday: 93 °F (at 6:20 PM)
Minimum temperature yesterday: 63 °F (at 5:20 AM)
Average temperature yesterday: 83 °F

Past Weeks' High & Low Weather Summary

 TemperatureHumidityPressure
High93 °F (Jul 1, 6:20 PM)100% (Jun 18, 10:20 AM)30.27 "Hg (Jun 18, 10:20 AM)
Low50 °F (Jun 17, 6:20 AM)24% (Jul 1, 2:50 PM)29.74 "Hg (Jun 22, 9:20 PM)
Average67 °F60%30.09 "Hg
* Reported Jun 17 6:20 AM — Jul 2 6:50 AM, Leimen, Weather by CustomWeather, © 2015

Note: Actual official high and low records may vary slightly from our data, if they occured in-between our weather recording intervals... More about our weather records

Advertising

Leimen weather history for previous 24 hours

 ConditionsComfort  
Time TempWeatherWind HumidityBarometerVisibility
6:50 AM
Thu, Jul 2
75 °FSunny.2 mph69%30.09 "Hg10 mi
6:20 AM72 °FClear.No wind73%30.09 "Hg10 mi
5:50 AM72 °FPassing clouds.1 mph73%30.09 "HgN/A
9:20 PM
Wed, Jul 1
86 °FSunny.3 mph40%30.04 "Hg10 mi
8:50 PM88 °FSunny.3 mph38%30.04 "Hg10 mi
8:20 PM90 °FPassing clouds.6 mph33%30.04 "HgN/A
7:50 PM91 °FPassing clouds.6 mph32%30.04 "HgN/A
7:20 PM91 °FPassing clouds.6 mph30%30.04 "HgN/A
6:50 PM91 °FPassing clouds.8 mph30%30.04 "HgN/A
6:20 PM93 °FPassing clouds.7 mph28%30.04 "HgN/A
5:50 PM91 °FPassing clouds.7 mph28%30.04 "HgN/A
5:20 PM91 °FPassing clouds.8 mph30%30.04 "HgN/A
4:50 PM91 °FPassing clouds.7 mph26%30.04 "HgN/A
4:20 PM91 °FPassing clouds.7 mph24%30.04 "HgN/A
3:50 PM91 °FPassing clouds.7 mph24%30.07 "HgN/A
3:20 PM91 °FPassing clouds.7 mph24%30.07 "HgN/A
2:50 PM91 °FPassing clouds.5 mph24%30.07 "HgN/A
2:20 PM90 °FPassing clouds.7 mph27%30.07 "HgN/A
1:50 PM90 °FPassing clouds.8 mph27%30.07 "HgN/A
1:20 PM88 °FPassing clouds.8 mph29%30.07 "HgN/A
12:50 PM88 °FPassing clouds.9 mph31%30.07 "HgN/A
12:20 PM88 °FPassing clouds.6 mph31%30.09 "HgN/A
11:50 AM86 °FSunny.3 mph38%30.09 "Hg10 mi
11:20 AM84 °FSunny.2 mph37%30.09 "Hg10 mi
10:50 AM82 °FSunny.2 mph42%30.09 "Hg10 mi
10:20 AM81 °FSunny.2 mph42%30.09 "Hg10 mi
9:50 AM77 °FSunny.2 mph44%30.09 "Hg10 mi
9:20 AM77 °FSunny.2 mph44%30.09 "Hg10 mi
8:50 AM75 °FSunny.2 mph47%30.09 "Hg10 mi
8:20 AM73 °FSunny.3 mph53%30.09 "Hg10 mi
Weather by CustomWeather, © 2015

See weather overviewHow to use our weather pages